Content
SEND FEEDBACK

Daily
Averages
Monthly
Summary
United States of America

GRAFTON, ILLINOIS


Home > North America > United States > Illinois
Elevation: 400 feet     Latitude: 38 58N     Longitude: 090 26W

WEATHER
 
SELECT A DAY
Number of Records: 172,027;   Date Range: 10/8/98 - 12/16/14
 
SHARE

PRINT THIS DATA

[ ← Previous Day ]
WEATHER ALMANAC - JANUARY 19, 2013
[ Next Day → ]
[ °C ]   °F
Weather ElementAverageHighLow
Temperature46.3 °F62.1 °F (1:54 pm)30.9 °F (1:54 am)
Dewpoint30.8 °F35.1 °F (3:54 pm)25 °F (1:54 am)
Humidity57.3 %82 % (4:54 am)35 % (1:54 pm)
Barometer30.03 in30.13 in (1:54 am)29.90 in (2:54 pm)
Wind Speed9.2 mph18.4 mph (12:54 pm)
Wind Gust21.9 mph (10:54 am)
Weather ElementAverage
Visibility10 mi
Wind DirectionSSW (205 °)

Weather ElementTotal
Precipitation---
Heating Degree Days18.5 (Base 65)
Averaged from 22 records on January 19, 2013
WEATHER CONDITIONS BREAKOUT
WIND DIRECTION BREAKOUT
WEATHER BY HOUR - JANUARY 19, 2013
[ °C ]   °F
Local TimeTemperatureDewpointHumidityBarometerVisibilityWind DirectionWind SpeedGust SpeedPrecipitationEventsConditions
1:54 AM30.9 °F25.0 °F79 %30.13 in10.0 miCalmClear
2:54 AM30.9 °F25.0 °F79 %30.12 in10.0 miSouth (190°)4.6 mphClear
3:54 AM30.9 °F25.0 °F79 %30.10 in10.0 miCalmClear
4:54 AM30.9 °F26.1 °F82 %30.09 in10.0 miCalmClear
5:54 AM36.0 °F26.1 °F67 %30.07 in10.0 miSouth (190°)5.8 mphClear
6:54 AM34.0 °F26.1 °F73 %30.06 in10.0 miVariable3.5 mphClear
7:54 AM37.9 °F28.0 °F68 %30.05 in10.0 miSW (220°)8.1 mphClear
8:54 AM42.1 °F30.0 °F62 %30.05 in10.0 miSW (220°)10.4 mphClear
9:54 AM46.9 °F33.1 °F59 %30.04 in10.0 miSW (220°)10.4 mphClear
10:54 AM53.1 °F32.0 °F45 %30.01 in10.0 miWSW (240°)15.0 mph21.9 mphClear
11:54 AM57.0 °F34.0 °F42 %29.96 in10.0 miWSW (240°)17.3 mph21.9 mphClear
12:54 PM60.1 °F34.0 °F38 %29.92 in10.0 miWSW (250°)18.4 mphClear
1:54 PM62.1 °F34.0 °F35 %29.91 in10.0 miWSW (250°)15.0 mphClear
2:54 PM62.1 °F34.0 °F35 %29.90 in10.0 miWest (260°)12.7 mph21.9 mphClear
3:54 PM61.0 °F35.1 °F38 %29.92 in10.0 miWest (260°)12.7 mphClear
4:54 PM57.0 °F34.0 °F42 %29.95 in10.0 miWest (260°)12.7 mphClear
5:54 PM54.0 °F33.1 °F45 %29.97 in10.0 miWSW (250°)9.2 mphClear
6:54 PM48.9 °F33.1 °F54 %30.01 in10.0 miWest (280°)11.5 mphClear
7:54 PM46.0 °F33.1 °F61 %30.04 in10.0 miWNW (290°)10.4 mphClear
8:54 PM45.0 °F33.1 °F63 %30.06 in10.0 miWNW (290°)9.2 mphClear
9:54 PM46.0 °F32.0 °F58 %30.08 in10.0 miWNW (300°)8.1 mphClear
10:54 PM46.0 °F30.9 °F56 %30.11 in10.0 miWNW (300°)6.9 mphClear
Hourly data recorded from KSET, located miles away from Grafton, Illinois







STORIES FROM OUR PARTNERS